Station Historical Data
Daily Summary for January 24, 2018 Units:  Metric    English   Both
« Previous Day
Next Day »
Daily Weekly Monthly Yearly Custom
  High: Low: Average:
Temperature: -3.1 °C -7.6 °C -5.8 °C
Dew Point: -6.4 °C -11.2 °C -9.5 °C
Humidity: 78% 71% 75%
Wind Speed: 16.1km/h 0km/h 6km/h
Wind Gust: 33.8km/h - -
Wind- - NW
Pressure: 1027 hPa 1012.4 hPa -
Precipitation: 0 mm    
Historical Graphs
 
 
Tabular Data for January 24, 2018
Time Temperature Dew Point Pressure Wind Wind Speed Wind Gust Humidity Rainfall Rate (Hourly)
01:45 -3.1 °C -6.6 °C 1012.4 hPa West 14.5 km/h 32.2 km/h 77% 0 mm
01:50 -3.1 °C -6.6 °C 1012.4 hPa West 12.9 km/h 32.2 km/h 77% 0 mm
01:55 -3.1 °C -6.6 °C 1012.8 hPa West 12.9 km/h 25.7 km/h 77% 0 mm
02:00 -3.1 °C -6.4 °C 1012.8 hPa WNW 11.3 km/h 29 km/h 78% 0 mm
02:05 -3.2 °C -6.6 °C 1013.1 hPa WNW 14.5 km/h 29 km/h 77% 0 mm
02:10 -3.2 °C -6.6 °C 1013.1 hPa West 12.9 km/h 29 km/h 77% 0 mm
02:15 -3.1 °C -6.6 °C 1013.4 hPa West 16.1 km/h 30.6 km/h 77% 0 mm
02:20 -3.2 °C -6.6 °C 1013.4 hPa West 12.9 km/h 30.6 km/h 77% 0 mm
02:25 -3.2 °C -6.7 °C 1013.8 hPa West 14.5 km/h 33.8 km/h 77% 0 mm
02:30 -3.2 °C -6.7 °C 1013.8 hPa West 12.9 km/h 33.8 km/h 77% 0 mm
02:35 -3.3 °C -6.7 °C 1013.8 hPa WNW 12.9 km/h 33.8 km/h 77% 0 mm
02:40 -3.3 °C -6.9 °C 1014.1 hPa WNW 14.5 km/h 27.4 km/h 76% 0 mm
02:45 -3.3 °C -6.8 °C 1014.1 hPa West 12.9 km/h 27.4 km/h 77% 0 mm
02:50 -3.4 °C -6.8 °C 1014.1 hPa West 12.9 km/h 27.4 km/h 77% 0 mm
02:55 -3.5 °C -6.9 °C 1014.4 hPa WNW 14.5 km/h 29 km/h 77% 0 mm
03:00 -3.6 °C -7.1 °C 1014.4 hPa WNW 12.9 km/h 29 km/h 77% 0 mm
03:05 -3.7 °C -7.1 °C 1014.4 hPa WNW 11.3 km/h 29 km/h 77% 0 mm
03:10 -3.7 °C -7.1 °C 1014.4 hPa WNW 14.5 km/h 27.4 km/h 77% 0 mm
03:15 -3.8 °C -7.2 °C 1014.8 hPa WNW 11.3 km/h 27.4 km/h 77% 0 mm
03:20 -3.8 °C -7.2 °C 1014.8 hPa WNW 12.9 km/h 25.7 km/h 77% 0 mm
03:25 -3.8 °C -7.3 °C 1014.8 hPa WNW 11.3 km/h 25.7 km/h 77% 0 mm
03:30 -3.8 °C -7.3 °C 1015.1 hPa WNW 12.9 km/h 25.7 km/h 77% 0 mm
03:35 -3.8 °C -7.4 °C 1015.1 hPa West 12.9 km/h 25.7 km/h 76% 0 mm
03:40 -3.8 °C -7.4 °C 1015.1 hPa West 11.3 km/h 22.5 km/h 76% 0 mm
03:45 -3.9 °C -7.5 °C 1015.5 hPa West 12.9 km/h 22.5 km/h 76% 0 mm
03:50 -3.9 °C -7.5 °C 1015.5 hPa West 14.5 km/h 25.7 km/h 76% 0 mm
03:55 -3.9 °C -7.5 °C 1015.5 hPa West 9.7 km/h 25.7 km/h 76% 0 mm
04:00 -3.9 °C -7.5 °C 1015.5 hPa West 11.3 km/h 25.7 km/h 76% 0 mm
04:05 -3.9 °C -7.5 °C 1015.8 hPa West 9.7 km/h 20.9 km/h 76% 0 mm
04:15 -3.9 °C -7.5 °C 1015.8 hPa West 11.3 km/h 19.3 km/h 76% 0 mm
04:20 -3.9 °C -7.6 °C 1016.1 hPa West 11.3 km/h 22.5 km/h 76% 0 mm
04:25 -3.9 °C -7.5 °C 1016.1 hPa West 8 km/h 22.5 km/h 76% 0 mm
04:30 -3.9 °C -7.6 °C 1016.1 hPa NW 8 km/h 22.5 km/h 76% 0 mm
04:40 -3.9 °C -7.4 °C 1016.5 hPa WNW 6.4 km/h 19.3 km/h 77% 0 mm
04:45 -4 °C -7.4 °C 1016.5 hPa WNW 6.4 km/h 16.1 km/h 77% 0 mm
04:50 -4.1 °C -7.5 °C 1016.5 hPa NW 8 km/h 20.9 km/h 77% 0 mm
04:55 -4.2 °C -7.6 °C 1016.8 hPa NW 8 km/h 20.9 km/h 77% 0 mm
05:00 -4.2 °C -7.5 °C 1016.8 hPa NW 8 km/h 20.9 km/h 78% 0 mm
05:05 -4.2 °C -7.5 °C 1016.8 hPa WNW 6.4 km/h 17.7 km/h 78% 0 mm
05:10 -4.3 °C -7.6 °C 1016.8 hPa WNW 8 km/h 16.1 km/h 78% 0 mm
05:15 -4.4 °C -7.7 °C 1017.2 hPa NW 8 km/h 17.7 km/h 78% 0 mm
05:20 -4.6 °C -7.8 °C 1017.2 hPa NW 9.7 km/h 19.3 km/h 78% 0 mm
05:25 -4.7 °C -8.1 °C 1017.2 hPa NW 9.7 km/h 19.3 km/h 77% 0 mm
05:30 -4.7 °C -8.2 °C 1017.5 hPa WNW 9.7 km/h 19.3 km/h 77% 0 mm
05:35 -4.8 °C -8.2 °C 1017.5 hPa WNW 11.3 km/h 20.9 km/h 77% 0 mm
05:40 -4.8 °C -8.1 °C 1017.5 hPa WNW 9.7 km/h 20.9 km/h 78% 0 mm
05:45 -4.9 °C -8.1 °C 1017.5 hPa West 9.7 km/h 20.9 km/h 78% 0 mm
05:50 -4.9 °C -8.3 °C 1017.5 hPa WNW 9.7 km/h 19.3 km/h 77% 0 mm
06:00 -4.9 °C -8.3 °C 1017.8 hPa NW 8 km/h 20.9 km/h 77% 0 mm
06:05 -4.9 °C -8.2 °C 1018.2 hPa WNW 9.7 km/h 22.5 km/h 78% 0 mm
06:10 -5 °C -8.4 °C 1018.2 hPa West 11.3 km/h 22.5 km/h 77% 0 mm
06:15 -5 °C -8.4 °C 1018.2 hPa WNW 11.3 km/h 24.1 km/h 77% 0 mm
06:20 -5.1 °C -8.4 °C 1018.5 hPa WNW 9.7 km/h 24.1 km/h 77% 0 mm
06:25 -5.1 °C -8.4 °C 1018.5 hPa West 9.7 km/h 24.1 km/h 77% 0 mm
06:30 -5.2 °C -8.6 °C 1018.8 hPa WNW 11.3 km/h 20.9 km/h 77% 0 mm
06:40 -5.2 °C -8.8 °C 1018.8 hPa NW 12.9 km/h 24.1 km/h 76% 0 mm
06:45 -5.3 °C -8.7 °C 1018.8 hPa NW 9.7 km/h 24.1 km/h 77% 0 mm
06:50 -5.4 °C -8.8 °C 1019.2 hPa WNW 11.3 km/h 24.1 km/h 77% 0 mm
06:55 -5.5 °C -8.9 °C 1019.2 hPa WNW 12.9 km/h 24.1 km/h 77% 0 mm
07:00 -5.6 °C -8.9 °C 1019.5 hPa WNW 11.3 km/h 24.1 km/h 77% 0 mm
07:05 -5.6 °C -9 °C 1019.5 hPa NW 8 km/h 24.1 km/h 77% 0 mm
07:10 -5.8 °C -9 °C 1019.5 hPa NNW 6.4 km/h 20.9 km/h 78% 0 mm
07:15 -5.8 °C -9.1 °C 1019.9 hPa NW 8 km/h 19.3 km/h 78% 0 mm
07:20 -5.9 °C -9.1 °C 1019.9 hPa NW 6.4 km/h 16.1 km/h 78% 0 mm
07:25 -5.9 °C -9.2 °C 1019.9 hPa NW 6.4 km/h 16.1 km/h 78% 0 mm
07:30 -6 °C -9.2 °C 1019.9 hPa NW 8 km/h 24.1 km/h 78% 0 mm
07:35 -6 °C -9.2 °C 1020.2 hPa NW 8 km/h 24.1 km/h 78% 0 mm
07:40 -6.1 °C -9.3 °C 1020.2 hPa NW 8 km/h 24.1 km/h 78% 0 mm
07:45 -6.1 °C -9.3 °C 1020.2 hPa NW 8 km/h 20.9 km/h 78% 0 mm
07:50 -6.2 °C -9.4 °C 1020.5 hPa NW 8 km/h 20.9 km/h 78% 0 mm
07:55 -6.2 °C -9.4 °C 1020.5 hPa NW 9.7 km/h 20.9 km/h 78% 0 mm
08:00 -6.2 °C -9.4 °C 1020.5 hPa NW 8 km/h 20.9 km/h 78% 0 mm
08:10 -6.3 °C -9.5 °C 1020.9 hPa NW 8 km/h 19.3 km/h 78% 0 mm
08:15 -6.3 °C -9.6 °C 1020.9 hPa NNW 8 km/h 17.7 km/h 78% 0 mm
08:20 -6.4 °C -9.6 °C 1020.9 hPa NNW 6.4 km/h 16.1 km/h 78% 0 mm
08:25 -6.4 °C -9.6 °C 1020.9 hPa NNW 6.4 km/h 16.1 km/h 78% 0 mm
08:30 -6.4 °C -9.7 °C 1021.2 hPa NNW 6.4 km/h 16.1 km/h 78% 0 mm
08:35 -6.5 °C -9.7 °C 1021.2 hPa NNW 8 km/h 16.1 km/h 78% 0 mm
08:40 -6.4 °C -9.7 °C 1021.2 hPa NNW 6.4 km/h 16.1 km/h 78% 0 mm
08:45 -6.5 °C -9.7 °C 1021.2 hPa NW 8 km/h 16.1 km/h 78% 0 mm
08:50 -6.5 °C -9.7 °C 1021.2 hPa NW 8 km/h 16.1 km/h 78% 0 mm
08:55 -6.6 °C -9.8 °C 1021.2 hPa NW 8 km/h 16.1 km/h 78% 0 mm
09:00 -6.6 °C -9.8 °C 1021.6 hPa NW 6.4 km/h 16.1 km/h 78% 0 mm
09:05 -6.6 °C -9.8 °C 1021.6 hPa NW 6.4 km/h 16.1 km/h 78% 0 mm
09:10 -6.6 °C -10 °C 1021.6 hPa NW 9.7 km/h 16.1 km/h 77% 0 mm
09:15 -6.6 °C -9.8 °C 1021.6 hPa NW 8 km/h 16.1 km/h 78% 0 mm
09:20 -6.6 °C -9.8 °C 1021.6 hPa NW 6.4 km/h 16.1 km/h 78% 0 mm
09:30 -6.5 °C -9.9 °C 1021.9 hPa NW 9.7 km/h 17.7 km/h 77% 0 mm
09:35 -6.4 °C -9.8 °C 1021.9 hPa NW 8 km/h 17.7 km/h 77% 0 mm
09:40 -6.3 °C -9.7 °C 1021.9 hPa NW 9.7 km/h 25.7 km/h 77% 0 mm
09:45 -6.3 °C -9.7 °C 1021.9 hPa NW 6.4 km/h 25.7 km/h 77% 0 mm
09:50 -6.2 °C -9.6 °C 1021.9 hPa NW 6.4 km/h 25.7 km/h 77% 0 mm
09:55 -6.3 °C -9.7 °C 1021.9 hPa NNW 8 km/h 20.9 km/h 77% 0 mm
10:00 -6.3 °C -9.9 °C 1022.2 hPa NNW 8 km/h 20.9 km/h 76% 0 mm
10:05 -6.2 °C -9.8 °C 1022.2 hPa NW 6.4 km/h 20.9 km/h 76% 0 mm
10:10 -5.9 °C -9.5 °C 1022.2 hPa NW 3.2 km/h 16.1 km/h 76% 0 mm
10:15 -5.9 °C -9.8 °C 1022.2 hPa NW 6.4 km/h 12.9 km/h 74% 0 mm
10:25 -5.9 °C -10.1 °C 1022.6 hPa NW 8 km/h 17.7 km/h 72% 0 mm
10:30 -6 °C -10.2 °C 1022.6 hPa NW 8 km/h 17.7 km/h 72% 0 mm
10:35 -6.2 °C -10.4 °C 1022.6 hPa NNW 9.7 km/h 20.9 km/h 72% 0 mm
10:40 -6.2 °C -10.4 °C 1022.6 hPa NNW 9.7 km/h 20.9 km/h 72% 0 mm
10:45 -6.2 °C -10.4 °C 1022.6 hPa NW 8 km/h 20.9 km/h 72% 0 mm
10:50 -6.1 °C -10.3 °C 1022.6 hPa WNW 8 km/h 17.7 km/h 72% 0 mm
10:55 -5.8 °C -10.2 °C 1022.6 hPa NW 4.8 km/h 16.1 km/h 71% 0 mm
11:05 -6.1 °C -10.4 °C 1022.6 hPa NW 8 km/h 17.7 km/h 71% 0 mm
11:10 -6.1 °C -10.3 °C 1022.2 hPa NW 8 km/h 17.7 km/h 72% 0 mm
11:15 -6.1 °C -10.3 °C 1022.2 hPa NNW 8 km/h 17.7 km/h 72% 0 mm
11:20 -6.1 °C -10.2 °C 1022.2 hPa NW 8 km/h 17.7 km/h 73% 0 mm
11:25 -6.2 °C -10.2 °C 1022.2 hPa NW 8 km/h 20.9 km/h 73% 0 mm
11:30 -6.2 °C -10.2 °C 1022.2 hPa NNW 8 km/h 20.9 km/h 73% 0 mm
11:35 -6.1 °C -9.8 °C 1022.2 hPa NNW 6.4 km/h 20.9 km/h 75% 0 mm
11:40 -5.8 °C -9.6 °C 1022.2 hPa NW 6.4 km/h 16.1 km/h 75% 0 mm
11:45 -5.6 °C -9.3 °C 1022.2 hPa WNW 8 km/h 16.1 km/h 75% 0 mm
11:50 -5.8 °C -9.9 °C 1022.2 hPa NW 11.3 km/h 17.7 km/h 73% 0 mm
11:55 -5.8 °C -9.7 °C 1021.9 hPa NW 6.4 km/h 17.7 km/h 74% 0 mm
12:00 -5.9 °C -9.8 °C 1021.9 hPa NNW 6.4 km/h 17.7 km/h 74% 0 mm
12:05 -5.9 °C -9.8 °C 1021.9 hPa NNW 6.4 km/h 16.1 km/h 74% 0 mm
12:10 -6 °C -9.7 °C 1021.9 hPa NNW 8 km/h 19.3 km/h 75% 0 mm
12:20 -6.1 °C -9.9 °C 1021.9 hPa NNW 6.4 km/h 19.3 km/h 74% 0 mm
12:25 -6 °C -10.1 °C 1021.9 hPa NW 8 km/h 17.7 km/h 73% 0 mm
12:30 -5.8 °C -10.1 °C 1021.9 hPa WNW 8 km/h 22.5 km/h 72% 0 mm
12:35 -5.9 °C -10.1 °C 1021.9 hPa NW 6.4 km/h 22.5 km/h 72% 0 mm
12:40 -5.9 °C -10.2 °C 1021.9 hPa NNW 6.4 km/h 22.5 km/h 72% 0 mm
12:45 -5.8 °C -10 °C 1021.6 hPa NW 8 km/h 19.3 km/h 72% 0 mm
12:50 -5.8 °C -10 °C 1021.9 hPa NW 6.4 km/h 19.3 km/h 72% 0 mm
12:55 -5.9 °C -9.9 °C 1021.9 hPa NNW 6.4 km/h 19.3 km/h 73% 0 mm
13:00 -5.8 °C -9.7 °C 1021.9 hPa NNW 6.4 km/h 14.5 km/h 74% 0 mm
13:05 -6.2 °C -10.1 °C 1021.9 hPa NNW 6.4 km/h 14.5 km/h 74% 0 mm
13:10 -6.1 °C -9.9 °C 1021.6 hPa North 4.8 km/h 14.5 km/h 74% 0 mm
13:15 -6.1 °C -9.9 °C 1021.6 hPa NNW 4.8 km/h 12.9 km/h 74% 0 mm
13:20 -6.3 °C -10.3 °C 1021.9 hPa NNW 6.4 km/h 12.9 km/h 73% 0 mm
13:25 -6.3 °C -10.4 °C 1021.9 hPa NNW 8 km/h 17.7 km/h 73% 0 mm
13:30 -6.1 °C -10 °C 1021.6 hPa NNW 4.8 km/h 17.7 km/h 74% 0 mm
13:35 -6.1 °C -10.3 °C 1021.9 hPa WNW 8 km/h 17.7 km/h 72% 0 mm
13:40 -5.8 °C -10.1 °C 1021.9 hPa WNW 4.8 km/h 14.5 km/h 72% 0 mm
13:45 -5.9 °C -10.1 °C 1021.9 hPa NNW 6.4 km/h 14.5 km/h 72% 0 mm
13:50 -5.8 °C -10.1 °C 1021.9 hPa North 4.8 km/h 11.3 km/h 72% 0 mm
13:55 -5.4 °C -9.5 °C 1021.9 hPa NW 4.8 km/h 11.3 km/h 73% 0 mm
14:00 -5.6 °C -9.6 °C 1021.9 hPa NW 4.8 km/h 9.7 km/h 73% 0 mm
14:05 -6 °C -10.2 °C 1021.9 hPa North 8 km/h 14.5 km/h 72% 0 mm
14:10 -6 °C -9.9 °C 1021.9 hPa North 4.8 km/h 14.5 km/h 74% 0 mm
14:15 -5.9 °C -9.8 °C 1021.9 hPa NNW 6.4 km/h 14.5 km/h 74% 0 mm
14:20 -5.5 °C -9.8 °C 1021.9 hPa WNW 4.8 km/h 14.5 km/h 72% 0 mm
14:25 -5.4 °C -9.7 °C 1021.9 hPa WNW 4.8 km/h 14.5 km/h 72% 0 mm
14:30 -5.6 °C -9.8 °C 1021.9 hPa NW 4.8 km/h 12.9 km/h 72% 0 mm
14:35 -5.5 °C -9.9 °C 1021.9 hPa NW 6.4 km/h 12.9 km/h 71% 0 mm
14:40 -5.3 °C -9.6 °C 1021.9 hPa WNW 4.8 km/h 12.9 km/h 72% 0 mm
14:45 -5.4 °C -9.8 °C 1022.2 hPa WNW 6.4 km/h 16.1 km/h 71% 0 mm
14:55 -5.7 °C -10.1 °C 1022.2 hPa NW 6.4 km/h 16.1 km/h 71% 0 mm
15:00 -5.7 °C -9.9 °C 1022.2 hPa NNW 6.4 km/h 16.1 km/h 72% 0 mm
15:05 -5.5 °C -9.8 °C 1022.2 hPa North 6.4 km/h 16.1 km/h 72% 0 mm
15:10 -5.7 °C -9.9 °C 1022.6 hPa North 8 km/h 16.1 km/h 72% 0 mm
15:15 -5.7 °C -9.7 °C 1022.6 hPa NNW 4.8 km/h 14.5 km/h 73% 0 mm
15:20 -5.6 °C -9.7 °C 1022.6 hPa NW 4.8 km/h 14.5 km/h 73% 0 mm
15:25 -5.5 °C -9.8 °C 1022.6 hPa NW 6.4 km/h 14.5 km/h 72% 0 mm
15:30 -5.4 °C -9.7 °C 1022.9 hPa NNW 6.4 km/h 16.1 km/h 72% 0 mm
15:35 -5.4 °C -9.7 °C 1022.9 hPa NNW 6.4 km/h 16.1 km/h 72% 0 mm
15:40 -5.6 °C -10 °C 1022.9 hPa NW 4.8 km/h 16.1 km/h 71% 0 mm
15:58 -5.4 °C -9.7 °C 1022.9 hPa WNW 8 km/h 16.1 km/h 72% 0 mm
16:05 -5.4 °C -9.7 °C 1022.9 hPa NW 8 km/h 12.9 km/h 72% 0 mm
16:10 -5.6 °C -10 °C 1022.9 hPa WNW 3.2 km/h 11.3 km/h 71% 0 mm
16:15 -5.6 °C -10.1 °C 1022.9 hPa NW 4.8 km/h 8 km/h 71% 0 mm
16:20 -5.7 °C -9.9 °C 1023.2 hPa NW 8 km/h 14.5 km/h 72% 0 mm
16:25 -5.8 °C -10.1 °C 1023.2 hPa NW 6.4 km/h 14.5 km/h 72% 0 mm
16:30 -5.8 °C -10.1 °C 1023.2 hPa NW 4.8 km/h 11.3 km/h 72% 0 mm
16:35 -5.8 °C -9.8 °C 1023.6 hPa NW 3.2 km/h 6.4 km/h 73% 0 mm
16:40 -5.8 °C -9.8 °C 1023.6 hPa WNW 9.7 km/h 11.3 km/h 73% 0 mm
16:45 -5.8 °C -9.9 °C 1023.6 hPa WNW 6.4 km/h 9.7 km/h 73% 0 mm
16:50 -5.9 °C -10 °C 1023.6 hPa NW 1.6 km/h 11.3 km/h 73% 0 mm
16:55 -6 °C -10.1 °C 1023.6 hPa NNW 4.8 km/h 12.9 km/h 73% 0 mm
17:00 -6.1 °C -10.1 °C 1023.9 hPa NNW 4.8 km/h 12.9 km/h 73% 0 mm
17:05 -6.2 °C -10.2 °C 1023.9 hPa NW 4.8 km/h 12.9 km/h 73% 0 mm
17:10 -6.3 °C -10.4 °C 1023.9 hPa NNW 3.2 km/h 9.7 km/h 73% 0 mm
17:15 -6.4 °C -10.3 °C 1023.9 hPa NW 3.2 km/h 8 km/h 74% 0 mm
17:20 -6.5 °C -10.4 °C 1024.3 hPa NW 1.6 km/h 6.4 km/h 74% 0 mm
17:25 -6.6 °C -10.4 °C 1024.3 hPa NW 3.2 km/h 8 km/h 74% 0 mm
17:30 -6.6 °C -10.3 °C 1023.9 hPa NW 4.8 km/h 9.7 km/h 75% 0 mm
17:35 -6.7 °C -10.4 °C 1024.3 hPa NNW 3.2 km/h 6.4 km/h 75% 0 mm
17:40 -6.8 °C -10.5 °C 1024.3 hPa North 4.8 km/h 9.7 km/h 75% 0 mm
17:45 -6.8 °C -10.5 °C 1024.3 hPa Calm   4.8 km/h 75% 0 mm
17:50 -6.9 °C -10.6 °C 1024.3 hPa North 1.6 km/h 6.4 km/h 75% 0 mm
17:55 -7 °C -10.5 °C 1024.3 hPa North 3.2 km/h 4.8 km/h 76% 0 mm
18:00 -7.1 °C -10.6 °C 1024.3 hPa North 1.6 km/h 4.8 km/h 76% 0 mm
18:05 -7.1 °C -10.4 °C 1024.6 hPa Calm   4.8 km/h 77% 0 mm
18:10 -7.2 °C -10.5 °C 1024.6 hPa Calm   4.8 km/h 77% 0 mm
18:15 -7.2 °C -10.6 °C 1024.6 hPa North 1.6 km/h 6.4 km/h 77% 0 mm
18:20 -7.2 °C -10.7 °C 1024.9 hPa North 3.2 km/h 6.4 km/h 76% 0 mm
18:25 -7.3 °C -10.8 °C 1024.9 hPa North 1.6 km/h 6.4 km/h 76% 0 mm
18:30 -7.3 °C -10.8 °C 1024.9 hPa Calm     76% 0 mm
18:35 -7.4 °C -10.7 °C 1024.9 hPa Calm     77% 0 mm
18:40 -7.4 °C -10.8 °C 1024.9 hPa Calm     77% 0 mm
18:45 -7.5 °C -10.8 °C 1024.9 hPa NNW 3.2 km/h 3.2 km/h 77% 0 mm
18:50 -7.6 °C -10.9 °C 1024.9 hPa Calm   4.8 km/h 77% 0 mm
18:55 -7.5 °C -10.8 °C 1024.9 hPa Calm   4.8 km/h 77% 0 mm
19:00 -7.5 °C -10.8 °C 1025.3 hPa Calm   3.2 km/h 77% 0 mm
19:05 -7.4 °C -10.8 °C 1025.3 hPa Calm   3.2 km/h 77% 0 mm
19:10 -7.4 °C -10.9 °C 1025.3 hPa Calm   6.4 km/h 76% 0 mm
19:15 -7.4 °C -10.9 °C 1025.3 hPa NNW 1.6 km/h 6.4 km/h 76% 0 mm
19:20 -7.4 °C -11.1 °C 1025.3 hPa NNW 1.6 km/h 4.8 km/h 75% 0 mm
19:25 -7.4 °C -11.1 °C 1025.3 hPa Calm   1.6 km/h 75% 0 mm
19:30 -7.4 °C -11.1 °C 1025.3 hPa Calm     75% 0 mm
19:35 -7.4 °C -11.1 °C 1025.6 hPa Calm     75% 0 mm
19:40 -7.3 °C -11.2 °C 1025.6 hPa Calm     74% 0 mm
19:45 -7.4 °C -11.1 °C 1025.6 hPa Calm     75% 0 mm
19:50 -7.3 °C -11 °C 1025.6 hPa Calm     75% 0 mm
19:55 -7.3 °C -11 °C 1025.6 hPa Calm     75% 0 mm
20:00 -7.2 °C -10.9 °C 1026 hPa Calm   3.2 km/h 75% 0 mm
20:05 -7.2 °C -10.8 °C 1026 hPa Calm   3.2 km/h 75% 0 mm
20:10 -7.2 °C -10.8 °C 1026 hPa NNW 1.6 km/h 3.2 km/h 75% 0 mm
20:15 -7.1 °C -10.8 °C 1026 hPa NNW 1.6 km/h 3.2 km/h 75% 0 mm
20:20 -7.2 °C -10.8 °C 1026 hPa Calm   1.6 km/h 75% 0 mm
20:25 -7.2 °C -10.7 °C 1026 hPa Calm     76% 0 mm
20:30 -7.2 °C -10.7 °C 1026 hPa Calm     76% 0 mm
20:35 -7.2 °C -10.7 °C 1026 hPa Calm     76% 0 mm
20:40 -7.2 °C -10.7 °C 1026 hPa Calm     76% 0 mm
20:45 -7.2 °C -10.7 °C 1026.3 hPa Calm     76% 0 mm
20:50 -7.1 °C -10.6 °C 1026.3 hPa Calm   1.6 km/h 76% 0 mm
20:55 -7.1 °C -10.6 °C 1026.3 hPa Calm   3.2 km/h 76% 0 mm
21:00 -7.1 °C -10.6 °C 1026.3 hPa Calm     76% 0 mm
21:05 -7.1 °C -10.6 °C 1026.3 hPa Calm   1.6 km/h 76% 0 mm
21:10 -7.1 °C -10.6 °C 1026.3 hPa Calm     76% 0 mm
21:15 -7.1 °C -10.4 °C 1026.3 hPa Calm   3.2 km/h 77% 0 mm
21:20 -7.1 °C -10.6 °C 1026.3 hPa Calm   3.2 km/h 76% 0 mm
21:25 -7 °C -10.5 °C 1026.3 hPa Calm     76% 0 mm
21:30 -6.9 °C -10.6 °C 1026.3 hPa Calm     75% 0 mm
21:35 -7 °C -10.5 °C 1026.3 hPa Calm     76% 0 mm
21:40 -7 °C -10.5 °C 1026.3 hPa Calm     76% 0 mm
21:45 -7 °C -10.5 °C 1026.3 hPa Calm     76% 0 mm
21:50 -7 °C -10.3 °C 1026.3 hPa Calm     77% 0 mm
21:55 -6.9 °C -10.2 °C 1026.3 hPa Calm     77% 0 mm
22:00 -6.8 °C -10.3 °C 1026.6 hPa Calm     76% 0 mm
22:05 -6.8 °C -10.3 °C 1026.3 hPa Calm     76% 0 mm
22:10 -6.8 °C -10.3 °C 1026.3 hPa NNW 3.2 km/h 6.4 km/h 76% 0 mm
22:15 -6.7 °C -10.2 °C 1026.3 hPa Calm   3.2 km/h 76% 0 mm
22:20 -6.7 °C -10.2 °C 1026.3 hPa Calm   1.6 km/h 76% 0 mm
22:25 -6.7 °C -10.2 °C 1026.3 hPa Calm   1.6 km/h 76% 0 mm
22:30 -6.7 °C -10.2 °C 1026.6 hPa Calm     76% 0 mm
22:35 -6.6 °C -10.2 °C 1026.6 hPa Calm     76% 0 mm
22:40 -6.6 °C -10 °C 1026.6 hPa Calm     77% 0 mm
22:45 -6.6 °C -9.9 °C 1026.6 hPa Calm   6.4 km/h 77% 0 mm
22:50 -6.6 °C -10.1 °C 1026.6 hPa NNW 1.6 km/h 4.8 km/h 76% 0 mm
22:55 -6.5 °C -10.1 °C 1026.6 hPa NNW 3.2 km/h 6.4 km/h 76% 0 mm
23:00 -6.4 °C -10.1 °C 1026.6 hPa NNW 3.2 km/h 6.4 km/h 75% 0 mm
23:05 -6.4 °C -10.1 °C 1026.6 hPa NW 3.2 km/h 6.4 km/h 75% 0 mm
23:10 -6.3 °C -10.1 °C 1027 hPa NW 4.8 km/h 6.4 km/h 75% 0 mm
23:15 -6.4 °C -10.1 °C 1026.6 hPa NW 4.8 km/h 6.4 km/h 75% 0 mm
23:20 -6.4 °C -10.2 °C 1026.6 hPa NW 1.6 km/h 6.4 km/h 75% 0 mm
23:25 -6.4 °C -10.2 °C 1027 hPa NW 1.6 km/h 6.4 km/h 75% 0 mm
23:30 -6.4 °C -10.2 °C 1026.6 hPa NW 1.6 km/h 4.8 km/h 75% 0 mm
23:35 -6.5 °C -10.2 °C 1027 hPa NW 1.6 km/h 6.4 km/h 75% 0 mm
23:40 -6.5 °C -10.2 °C 1027 hPa NW 3.2 km/h 6.4 km/h 75% 0 mm
23:45 -6.5 °C -10.2 °C 1027 hPa NW 3.2 km/h 8 km/h 75% 0 mm
23:50 -6.5 °C -10.2 °C 1027 hPa NNW 3.2 km/h 8 km/h 75% 0 mm
23:55 -6.4 °C -10.2 °C 1027 hPa Calm   6.4 km/h 75% 0 mm
Buffalo, New York, USA
Compliments of Weather Underground - 2.25 mb